Temperature
12 12 12 12 12 13 13 13 13 13 13 13 13 13 13 14 14 14 14 14 14 14 14 14 14 14 14 14 14 15 15 15 15 15 15 14 15 15 15 15 15 15 15
12 12 12 12 12 12 12 13 13 13 13 13 13 13 13 13 14 14 14 14 14 14 14 14 14 14 14 14 14 14 14 14 14 14 14 14 14 14 14 14 14 14 14
12 12 12 12 12 12 12 12 12 12 13 13 13 13 13 13 13 13 14 14 14 14 14 14 14 14 14 14 14 14 14 14 14 14 14 14 14 14 14 14 14 14 14
11 12 12 12 12 12 12 12 12 12 12 12 13 13 13 13 13 13 13 13 13 13 14 14 14 14 14 14 14 14 14 14 14 14 14 14 14 14 14 14 14 14 14
11 11 11 12 12 12 12 12 12 12 12 12 12 12 12 12 13 13 13 13 13 13 13 13 13 13 13 13 13 13 13 13 14 14 14 14 14 14 14 14 14 14 14
11 11 11 11 11 11 11 11 12 12 12 12 12 12 12 12 12 12 13 13 13 13 13 13 13 13 13 13 13 13 13 13 13 13 13 13 13 13 13 14 14 14 14
10 11 11 11 11 11 11 11 11 11 11 12 12 12 12 12 12 12 12 12 12 13 13 13 13 13 13 13 13 13 13 13 13 13 13 13 13 13 13 13 13 13 13
10 10 10 10 11 11 11 11 11 11 11 11 11 11 12 12 12 12 12 12 12 12 12 12 12 12 12 12 12 12 12 13 13 13 13 13 13 13 13 13 13 13 13
10 10 10 10 10 10 10 11 11 11 11 11 11 11 11 11 11 11 12 12 12 12 12 12 12 12 12 12 12 12 12 12 12 12 12 12 12 12 12 12 13 13 13
9 10 10 10 10 10 10 10 10 10 10 11 11 11 11 11 11 11 11 11 11 11 12 12 12 12 12 12 12 12 12 12 12 12 12 12 12 12 12 12 12 12 12
9 9 9 9 9 10 10 10 10 10 10 10 10 10 10 11 11 11 11 11 11 11 11 11 11 11 11 11 11 11 11 12 12 12 12 12 12 12 12 12 12 12 12
9 9 9 9 9 9 9 9 9 9 9 9 10 10 10 10 10 10 10 10 10 10 11 11 11 11 11 11 11 11 11 11 11 11 11 11 11 11 11 11 11 11 11
8 8 8 8 8 9 9 9 9 9 9 9 9 9 9 9 10 10 10 10 10 10 10 10 10 10 10 11 10 11 11 11 11 11 11 11 11 11 11 11 11 11 11
8 8 8 8 8 8 8 8 8 8 8 8 9 9 9 9 9 9 9 9 9 10 10 10 10 10 10 10 10 10 10 10 10 10 10 10 10 10 10 10 10 10 10
8 8 8 8 7 8 8 8 8 8 8 8 8 8 8 8 8 8 9 9 9 9 9 9 9 9 9 9 10 10 10 10 10 10 10 10 10 10 10 10 10 10 10
7 7 7 7 7 7 7 7 7 7 7 7 7 7 7 8 8 8 8 8 8 8 8 8 9 9 9 9 9 9 9 9 9 9 9 9 9 9 9 9 9 9 9
7 7 6 6 6 6 6 6 7 7 7 7 7 7 7 7 7 7 7 7 8 8 8 8 8 8 8 8 8 8 8 8 8 8 8 8 9 9 9 9 9 9 9
6 6 6 6 6 6 6 6 6 6 6 6 6 6 6 6 6 6 7 7 7 7 7 7 7 8 8 8 8 8 8 8 8 8 8 8 8 8 8 8 8 8 8
6 6 6 6 5 5 5 5 5 5 5 5 5 5 5 5 6 6 6 6 6 6 6 6 7 7 7 7 7 7 7 7 7 7 7 7 7 7 7 7 7 8 8
5 5 5 5 5 5 5 5 5 5 5 5 5 5 5 5 5 5 5 5 5 5 6 6 6 6 6 6 6 6 6 6 6 6 6 6 6 6 6 6 7 7 7
5 5 5 5 4 4 4 4 4 4 4 4 4 4 4 4 4 4 4 5 5 5 5 5 5 5 5 5 5 5 5 5 5 5 5 5 5 5 5 6 6 6 6
4 4 4 4 4 4 4 4 4 4 4 4 4 4 4 4 4 4 4 4 4 4 4 4 4 4 4 4 4 4 4 4 4 4 4 4 4 4 5 5 5 5 5
4 4 4 4 3 3 3 3 3 3 3 3 3 3 3 3 3 3 3 3 3 3 3 3 3 3 3 3 3 3 3 3 3 3 4 4 4 4 4 4 4 4 4
4 4 3 3 3 3 3 3 2 2 2 3 3 2 2 2 2 3 3 3 3 3 3 3 3 2 2 3 2 2 2 2 2 2 2 3 3 3 3 3 4 4 4
4 3 3 3 3 2 2 2 2 2 2 2 2 2 2 2 2 2 2 2 2 2 2 2 2 2 2 2 2 1 2 1 1 1 1 2 2 3 3 3 3 3 3
3 3 2 2 2 2 2 1 1 1 1 1 1 1 1 1 1 1 1 1 1 1 1 1 1 1 1 1 1 1 1 1 0 0 -0 0 1 2 2 2 2 2 2
Wind_Speed
2 4 2 5 7 9 10 10 11 12 12 12 12 12 12 12 13 13 13 14 14 14 14 14 15 15 15 15 15 15 15 15 15 15 15 14 14 14 14 14 13 13 14
1 1 3 5 8 10 10 11 11 12 12 12 13 12 12 12 13 13 13 14 14 14 14 14 15 15 14 14 15 14 14 15 15 14 14 13 13 13 13 13 12 12 14
3 4 5 8 10 10 11 11 11 11 11 12 12 13 12 12 12 12 13 13 13 14 14 14 14 14 14 14 14 14 14 14 14 14 13 11 10 12 13 12 12 12 12
5 6 7 10 11 11 11 11 11 11 12 12 12 12 12 12 12 12 12 13 13 13 13 14 14 14 13 14 13 13 13 13 14 13 11 11 9 11 11 11 11 11 11
7 7 8 10 11 11 11 11 11 11 11 11 12 12 12 12 12 12 12 12 13 13 13 13 13 13 13 13 13 13 13 13 13 12 11 10 9 10 11 10 10 10 10
7 8 8 11 11 11 11 11 11 11 11 11 11 11 11 11 12 12 12 13 13 13 13 13 13 13 13 13 13 13 13 12 12 11 11 10 9 9 10 10 10 10 9
6 8 9 10 10 10 10 11 11 11 12 12 11 11 11 11 12 12 12 12 13 12 12 12 13 13 13 13 13 13 13 12 11 10 10 9 9 9 9 9 9 9 9
7 8 8 9 10 10 10 10 11 12 12 12 11 11 11 11 11 11 12 13 12 12 12 12 12 12 12 13 13 13 13 12 10 9 9 9 9 8 8 8 8 9 9
9 9 9 9 9 9 10 10 11 11 12 12 12 12 12 11 11 11 11 12 12 11 12 12 12 12 12 13 13 13 13 13 11 9 8 8 8 8 7 8 7 8 8
7 8 9 9 10 10 9 10 11 11 11 12 12 12 12 13 12 11 11 11 11 11 12 12 12 12 12 12 13 13 12 12 11 10 8 8 8 7 7 6 6 6 7
5 5 7 8 9 10 9 9 10 11 11 12 11 12 12 12 12 11 11 11 11 11 12 12 12 12 12 12 12 12 11 10 10 9 8 9 8 7 6 6 5 5 6
3 3 5 6 7 8 8 9 10 10 10 11 11 11 11 11 11 11 11 12 11 11 11 12 12 12 11 11 11 11 10 10 9 8 9 10 9 8 7 6 5 4 5
3 3 3 5 6 7 7 7 8 9 9 10 10 10 11 11 10 10 10 10 10 10 10 10 11 11 10 9 9 9 9 9 8 8 9 10 9 9 7 7 5 4 4
4 2 2 4 5 6 7 6 7 7 7 7 8 9 9 8 8 9 8 9 9 8 8 9 9 9 10 10 9 9 9 8 8 8 9 11 11 9 8 7 6 5 3
4 3 2 3 4 5 6 5 6 6 6 7 7 8 8 7 6 7 7 8 8 8 8 7 8 8 8 8 8 8 8 8 9 9 9 11 12 11 9 8 7 6 5
4 3 2 3 4 5 5 5 4 5 6 6 7 7 7 7 6 6 6 7 7 7 7 7 7 6 6 6 7 7 7 7 8 8 9 10 12 12 11 9 8 7 6
5 4 3 3 4 5 4 4 5 5 6 6 5 6 7 7 7 6 5 5 6 6 7 7 7 6 5 6 5 6 6 7 7 8 8 9 10 11 11 10 9 9 7
5 4 3 3 3 4 4 5 5 5 5 5 5 6 6 7 7 6 5 4 6 6 6 5 4 3 4 3 3 3 5 5 6 7 7 9 9 10 11 11 11 11 9
6 5 4 4 4 3 4 5 5 5 5 5 5 5 6 6 6 6 5 4 5 6 5 4 3 3 3 3 3 3 3 4 5 6 7 8 9 9 9 10 11 11 10
6 5 5 4 4 4 4 4 4 4 4 4 4 4 5 5 5 5 5 5 5 4 4 3 3 3 2 2 2 3 3 2 3 4 5 7 8 9 9 9 9 10 10
5 5 5 5 4 4 2 2 2 1 1 2 3 4 4 4 5 5 4 5 5 3 3 3 2 2 3 3 2 3 3 2 2 2 4 5 7 8 9 9 9 9 8
7 7 6 6 5 5 3 2 1 2 1 1 2 4 4 4 4 4 4 3 3 3 3 3 3 1 2 3 2 1 2 2 3 3 2 3 4 7 7 8 9 8 8
8 8 7 7 6 5 4 3 3 3 2 2 2 2 4 4 4 4 4 4 3 3 2 3 2 2 1 2 2 1 1 1 3 2 2 2 3 3 5 7 7 8 8
9 8 7 7 6 6 5 5 5 2 1 1 0 1 2 3 4 4 4 4 3 3 2 2 2 1 1 1 2 1 0 1 1 3 2 2 3 3 4 6 6 7 8
8 8 7 7 6 6 6 6 5 3 1 1 1 1 1 2 3 3 4 4 3 2 2 2 2 2 1 0 0 1 1 1 0 1 4 4 3 3 3 4 5 5 7
6 7 7 7 6 6 6 5 5 5 4 3 1 1 0 1 2 2 3 3 2 2 2 1 1 1 1 0 0 0 1 1 1 1 3 4 5 4 4 4 4 4 6
Wind_Direction
285 312 48 63 72 72 73 72 69 69 68 69 70 71 70 70 68 65 63 61 61 62 62 61 61 61 62 65 65 64 65 64 62 63 62 63 67 70 72 70 69 70 76
249 336 74 77 79 76 73 73 70 69 69 68 69 70 70 68 67 65 61 60 59 60 60 59 59 60 61 63 63 62 64 65 63 61 58 56 61 68 71 71 71 72 75
60 61 73 83 82 79 74 72 70 70 69 68 67 67 68 68 66 65 63 60 58 58 57 57 57 59 60 62 62 62 63 65 63 60 55 49 55 67 70 72 72 73 75
67 67 76 82 80 78 75 72 68 67 68 69 68 66 67 68 67 66 64 61 58 57 57 58 57 58 58 59 61 63 64 63 61 57 52 46 48 64 70 73 74 75 76
62 69 83 86 82 77 74 71 68 68 68 67 67 66 66 67 67 66 64 62 59 57 57 57 58 57 57 58 60 62 64 62 58 55 49 44 44 58 66 69 73 76 78
59 66 83 84 82 79 75 71 67 66 66 65 64 63 63 64 66 66 64 61 58 58 58 56 56 56 56 58 58 59 59 58 55 51 46 42 43 56 63 66 70 73 76
64 63 79 83 81 80 76 72 68 65 64 64 63 61 63 63 62 63 63 60 57 55 55 54 54 54 54 56 58 57 57 55 53 48 42 38 43 53 60 64 68 71 72
76 65 72 81 81 79 75 73 68 65 63 62 60 59 60 61 60 61 58 55 55 54 55 53 52 52 54 57 57 55 54 52 50 43 36 32 40 48 57 60 66 70 71
74 66 59 64 72 76 74 72 68 66 64 61 59 58 58 60 61 59 56 54 52 52 53 54 52 52 52 54 55 53 53 52 46 37 30 26 33 44 52 55 61 68 71
66 62 59 61 62 62 69 70 66 65 65 63 59 58 58 55 55 57 54 51 50 50 50 52 53 53 51 51 51 51 50 49 42 35 26 24 27 34 42 48 55 64 70
71 58 60 62 63 64 66 66 64 63 63 61 59 58 58 55 50 49 51 50 47 47 49 49 49 50 50 47 45 46 49 45 41 33 24 21 21 25 32 38 46 56 66
98 73 60 65 64 67 67 66 64 62 63 63 62 60 60 58 52 48 47 46 46 46 46 44 46 46 46 43 40 42 42 40 40 29 21 21 20 22 27 32 36 45 54
137 97 70 69 73 74 71 70 69 69 68 66 63 61 62 61 56 51 48 42 40 42 43 39 42 43 43 43 42 40 38 39 34 26 20 21 20 21 23 27 28 33 40
136 115 91 78 80 80 81 77 76 72 70 66 63 62 63 59 52 49 47 41 40 42 43 42 41 39 41 41 42 40 38 35 27 23 20 25 24 20 19 18 22 26 24
143 133 116 92 90 87 85 80 77 76 74 73 70 63 65 64 55 51 48 44 39 42 43 43 41 38 37 36 37 39 35 31 28 28 22 25 27 23 20 16 14 21 19
161 151 130 109 101 96 86 81 80 82 82 80 72 65 67 68 62 54 48 43 37 38 42 45 44 41 37 36 33 33 32 30 30 32 31 28 25 23 24 24 19 16 17
169 153 142 130 104 97 91 91 88 83 83 77 73 69 68 69 65 58 50 38 32 39 44 44 42 43 38 33 28 25 29 30 31 33 35 35 27 23 25 20 16 13 8
159 154 154 137 113 98 95 95 91 87 81 74 76 73 68 66 67 63 53 35 30 41 44 43 31 34 29 21 16 16 21 26 28 34 40 37 32 27 22 18 16 11 4
163 160 154 137 132 108 98 98 91 84 74 71 72 73 69 66 66 67 55 40 39 44 40 35 32 23 20 15 7 12 18 24 24 34 36 33 31 26 23 15 10 6 3
161 158 154 141 130 108 98 94 81 71 61 60 60 64 68 67 63 65 58 43 44 46 34 31 27 28 17 3 10 8 359 11 31 35 30 30 27 22 17 12 9 2 360
161 160 158 149 147 135 128 124 111 83 52 42 47 51 62 66 63 62 56 46 42 43 34 25 25 28 15 358 20 6 357 7 23 31 25 23 19 14 12 10 8 4 357
178 174 167 164 161 159 157 144 123 116 98 53 46 46 48 55 60 61 61 53 46 47 36 25 28 23 4 17 41 23 349 342 1 352 359 11 5 5 4 1 4 3 358
185 183 179 174 168 162 140 114 94 72 52 43 28 22 24 43 55 64 65 63 52 54 42 26 28 50 17 1 31 86 97 279 322 321 340 352 350 355 350 350 354 355 353
192 183 177 174 169 162 150 149 146 144 154 214 291 13 28 46 53 57 63 64 58 55 40 23 34 30 64 354 356 18 160 195 283 315 315 325 334 338 334 335 338 342 349
184 180 178 173 170 167 164 162 156 146 133 107 92 88 31 34 51 55 59 61 57 51 44 38 31 29 40 164 302 314 316 333 269 258 296 312 318 307 313 314 317 328 337
176 174 173 172 175 172 169 166 164 158 146 134 127 124 45 0 22 42 58 60 53 51 41 33 38 33 26 82 245 246 240 236 258 265 282 300 301 298 303 298 302 315 323
Height
1532 1534 1535 1536 1537 1537 1537 1537 1537 1537 1537 1537 1537 1537 1537 1538 1538 1538 1538 1538 1538 1538 1538 1538 1538 1538 1537 1538 1538 1538 1538 1538 1538 1538 1539 1539 1539 1540 1540 1540 1540 1540 1541
1532 1533 1535 1535 1536 1537 1537 1537 1537 1537 1538 1538 1538 1538 1538 1538 1538 1538 1538 1538 1538 1538 1538 1538 1538 1538 1538 1538 1538 1539 1539 1539 1539 1540 1540 1540 1541 1541 1541 1541 1542 1542 1542
1531 1533 1534 1535 1536 1536 1537 1537 1537 1538 1538 1538 1538 1538 1538 1538 1538 1538 1538 1539 1539 1539 1539 1539 1539 1539 1539 1539 1539 1539 1540 1540 1540 1541 1541 1541 1542 1542 1542 1543 1543 1543 1544
1531 1532 1533 1535 1535 1536 1537 1537 1538 1538 1538 1538 1538 1538 1538 1538 1538 1538 1538 1539 1539 1539 1539 1539 1539 1539 1539 1540 1540 1540 1540 1541 1541 1541 1542 1542 1542 1543 1543 1543 1544 1544 1545
1531 1532 1533 1534 1535 1536 1536 1537 1537 1538 1538 1538 1538 1538 1538 1538 1538 1538 1538 1538 1539 1539 1539 1539 1539 1539 1540 1540 1540 1541 1541 1541 1541 1542 1542 1543 1543 1543 1544 1544 1545 1545 1545
1530 1532 1533 1534 1534 1535 1536 1536 1537 1537 1538 1538 1538 1538 1538 1538 1538 1538 1538 1538 1539 1539 1539 1539 1539 1539 1540 1540 1540 1541 1541 1541 1542 1542 1543 1543 1544 1544 1544 1545 1545 1545 1546
1530 1532 1533 1533 1534 1535 1536 1536 1537 1537 1537 1537 1538 1538 1538 1538 1538 1538 1538 1538 1538 1538 1538 1539 1539 1539 1540 1540 1540 1541 1541 1542 1542 1542 1543 1543 1544 1545 1545 1545 1545 1546 1546
1530 1531 1532 1533 1534 1535 1535 1536 1536 1537 1537 1537 1537 1537 1537 1537 1537 1537 1537 1538 1538 1538 1538 1538 1538 1539 1539 1540 1540 1541 1541 1542 1542 1543 1543 1544 1544 1545 1545 1545 1545 1546 1546
1530 1531 1532 1533 1533 1534 1535 1536 1536 1536 1536 1536 1537 1537 1537 1537 1537 1537 1537 1537 1537 1537 1537 1538 1538 1538 1539 1539 1540 1540 1541 1541 1542 1543 1543 1544 1544 1544 1545 1545 1545 1545 1545
1529 1530 1531 1532 1533 1533 1534 1535 1535 1535 1536 1536 1536 1536 1536 1536 1536 1536 1536 1537 1537 1537 1537 1537 1538 1538 1538 1539 1539 1540 1540 1541 1541 1542 1543 1543 1544 1544 1544 1544 1545 1545 1545
1528 1529 1530 1531 1532 1533 1533 1534 1534 1535 1535 1535 1535 1535 1535 1536 1536 1536 1536 1536 1536 1536 1536 1537 1537 1537 1538 1538 1538 1539 1540 1540 1541 1541 1542 1542 1543 1543 1543 1544 1544 1544 1544
1525 1527 1529 1530 1531 1532 1533 1533 1534 1534 1534 1535 1535 1535 1535 1535 1535 1535 1535 1535 1535 1535 1536 1536 1536 1536 1537 1537 1537 1538 1539 1539 1539 1540 1540 1541 1541 1542 1542 1542 1543 1543 1544
1524 1526 1527 1529 1530 1531 1531 1532 1533 1533 1534 1534 1534 1534 1534 1534 1534 1534 1534 1534 1534 1535 1535 1535 1535 1535 1536 1536 1536 1537 1537 1538 1538 1538 1539 1539 1540 1540 1541 1541 1541 1542 1542
1522 1524 1526 1527 1529 1530 1531 1531 1532 1532 1532 1533 1533 1533 1533 1533 1533 1533 1533 1533 1533 1533 1534 1534 1534 1534 1535 1535 1535 1535 1536 1536 1537 1537 1537 1537 1538 1538 1539 1539 1540 1540 1540
1521 1523 1524 1526 1527 1528 1529 1530 1531 1531 1532 1532 1532 1532 1532 1532 1532 1532 1532 1532 1532 1532 1532 1533 1533 1533 1533 1533 1534 1534 1534 1534 1535 1535 1535 1535 1536 1536 1537 1537 1537 1538 1538
1519 1521 1523 1524 1525 1526 1527 1528 1529 1530 1530 1531 1531 1531 1531 1531 1531 1531 1531 1531 1531 1531 1531 1531 1531 1531 1532 1532 1532 1532 1532 1533 1533 1533 1533 1533 1534 1534 1534 1535 1535 1536 1536
1517 1519 1521 1522 1523 1525 1526 1527 1528 1528 1529 1529 1530 1530 1530 1530 1530 1530 1529 1530 1529 1529 1529 1529 1530 1530 1530 1530 1530 1530 1530 1530 1531 1531 1531 1531 1532 1532 1532 1532 1532 1533 1533
1515 1516 1518 1520 1521 1522 1524 1525 1526 1526 1527 1528 1528 1528 1528 1528 1528 1528 1528 1528 1528 1527 1528 1528 1528 1528 1528 1528 1528 1528 1528 1528 1528 1528 1529 1529 1529 1529 1529 1529 1529 1530 1530
1512 1514 1516 1517 1519 1520 1521 1522 1523 1524 1525 1526 1526 1526 1526 1527 1527 1527 1526 1526 1526 1526 1526 1526 1526 1526 1526 1526 1526 1526 1526 1526 1526 1526 1526 1527 1527 1527 1527 1526 1527 1527 1527
1509 1511 1513 1515 1516 1517 1519 1520 1521 1522 1523 1524 1524 1524 1525 1525 1525 1525 1525 1525 1525 1524 1524 1524 1524 1524 1524 1524 1524 1524 1524 1524 1524 1524 1524 1524 1524 1524 1524 1524 1524 1524 1524
1506 1508 1509 1511 1513 1514 1515 1516 1517 1518 1520 1521 1522 1522 1522 1522 1523 1523 1523 1522 1523 1522 1522 1522 1522 1522 1521 1522 1521 1521 1521 1521 1521 1522 1522 1522 1522 1522 1522 1521 1521 1521 1521
1501 1504 1506 1508 1509 1511 1513 1513 1515 1516 1517 1519 1519 1520 1520 1520 1520 1520 1521 1520 1521 1521 1520 1520 1520 1519 1519 1519 1520 1519 1519 1519 1519 1519 1519 1519 1519 1519 1519 1518 1518 1518 1517
1497 1499 1501 1504 1506 1508 1509 1511 1512 1514 1515 1516 1516 1517 1518 1518 1518 1518 1518 1518 1518 1518 1518 1518 1518 1518 1517 1518 1518 1519 1518 1517 1516 1516 1516 1516 1517 1516 1516 1515 1515 1515 1514
1492 1495 1498 1500 1503 1504 1506 1507 1509 1510 1511 1512 1514 1514 1515 1515 1515 1516 1516 1516 1516 1516 1516 1516 1516 1515 1515 1515 1516 1516 1517 1516 1516 1513 1513 1513 1513 1513 1513 1512 1512 1511 1511
1488 1491 1494 1497 1499 1501 1503 1504 1506 1507 1509 1510 1511 1512 1512 1513 1513 1513 1513 1513 1513 1513 1513 1513 1513 1513 1513 1513 1513 1513 1513 1513 1513 1512 1510 1509 1509 1510 1509 1509 1508 1508 1507
1484 1487 1490 1492 1495 1497 1499 1501 1502 1504 1505 1507 1508 1509 1509 1510 1510 1510 1510 1510 1510 1510 1510 1510 1510 1510 1510 1510 1510 1510 1510 1510 1510 1509 1508 1506 1505 1505 1505 1505 1505 1504 1504